Regional Weather Roundup
Issued by NWS

Home | Current Version | Previous Version | Text Only | Print | Product List | Glossary On
Versions: 1 2 3 4 5 6 7 8 9 10 11 12 13 14 15 16 17 18 19 20 21 22 23 24 25 26 27 28
000
ASUS44 KLIX 260606
RWRLA
LOUISIANA WEATHER ROUNDUP
NATIONAL WEATHER SERVICE NEW ORLEANS LA
100 AM CDT THU APR 26 2018

NOTE: "FAIR" INDICATES FEW OR NO CLOUDS BELOW 12,000 FEET WITH NO
      SIGNIFICANT WEATHER AND/OR OBSTRUCTIONS TO VISIBILITY.
      SKY/WX - SKY CONDITION AND SIGNIFICANT WEATHER.
      TMP - AIR TEMPERATURE.    DP   - DEWPOINT TEMPERATURE.
      RH  - RELATIVE HUMIDITY.  PRES - PRESSURE.
      HX  - HEAT INDEX.         WCI  - WIND CHILL INDEX.

*  THESE STATIONS ARE NOT NWS OR FAA STATIONS AND ARE NOT UNDER
   NWS QUALITY CONTROL.

LAZ040-048-061>063-065-066-069-260700-
SOUTHEAST LOUISIANA

CITY           SKY/WX    TMP DP  RH WIND       PRES   REMARKS
N.O. INTL ARPT FAIR      68  64  87 SW8       29.91F
6HR MIN TEMP:  68; 6HR MAX TEMP:  78;

N.O. LAKEFRONT FAIR      70  62  76 SW10      29.90F
6HR MIN TEMP:  70; 6HR MAX TEMP:  77;

N.O. DOWNTOWN* FAIR      70  63  78 S3        29.92F
6HR MIN TEMP:  70; 6HR MAX TEMP:  80;

RESERVE*       FAIR      68  62  80 W5        29.92S
6HR MIN TEMP:  67; 6HR MAX TEMP:  81;

SLIDELL        FAIR      66  62  87 SW3       29.89F
6HR MIN TEMP:  61; 6HR MAX TEMP:  77;

BATON ROUGE    FAIR      67  61  81 SW12      29.90F
6HR MIN TEMP:  67; 6HR MAX TEMP:  79;

BOOTHVILLE     FAIR      73  64  73 W9        29.93F
6HR MIN TEMP:  72; 6HR MAX TEMP:  75;

BELLE CHASSE   FAIR      64  64 100 SW3       29.91F
6HR MIN TEMP:  64; 6HR MAX TEMP:  78;

BOGALUSA*      FAIR      63  58  82 W5        29.91R
6HR MIN TEMP:  61; 6HR MAX TEMP:  78;

GALLIANO*      FAIR      66  62  85 S3        29.92F
6HR MIN TEMP:  65; 6HR MAX TEMP:  74;

NEW ROADS*     CLOUDY    68  60  76 SW7       29.91F
6HR MIN TEMP:  67; 6HR MAX TEMP:  78;

GONZALES*      FAIR      67  62  86 CALM      29.91F
6HR MIN TEMP:  67; 6HR MAX TEMP:  78;

HAMMOND*       FAIR      66  61  82 W6        29.91S
HOUMA*         FAIR      66  64  93 CALM      29.92F
6HR MIN TEMP:  66; 6HR MAX TEMP:  75;

PORT FOURCHON* CLEAR     72  64  78 SW10      29.94F

$$

LAZ041-044-053-054-260700-
SOUTHWEST LOUISIANA

CITY           SKY/WX    TMP DP  RH WIND       PRES   REMARKS
LAKE CHARLES   CLOUDY    72  62  71 NW9       29.95S
6HR MIN TEMP:  72; 6HR MAX TEMP:  75;

LAFAYETTE      CLOUDY    71  64  78 SW12      29.92F
6HR MIN TEMP:  69; 6HR MAX TEMP:  77;

PATTERSON      FAIR      66  64  93 SW6       29.94S
6HR MIN TEMP:  66; 6HR MAX TEMP:  74;

SALT POINT       N/A    N/A N/A N/A SW5       29.92F
NEW IBERIA     CLOUDY    70  62  76 SW8       29.93F
6HR MIN TEMP:  67; 6HR MAX TEMP:  75;

CHENAULT AIRPK CLOUDY    71  62  72 NW9       29.96R
6HR MIN TEMP:  71; 6HR MAX TEMP:  76;


$$

LAZ027-028-260700-
CENTRAL LOUISIANA

CITY           SKY/WX    TMP DP  RH WIND       PRES   REMARKS
FORT POLK      CLOUDY    62  55  76 NW15      29.96S
6HR MIN TEMP:  62; 6HR MAX TEMP:  78; 6HR PCP: TRACE;

ALEXANDRIA INT CLOUDY    61  57  87 NW20      29.93R
6HR MIN TEMP:  61; 6HR MAX TEMP:  78; 6HR PCP:  0.03;

ALEXANDRIA     CLOUDY    60  59  96 VRB7      29.94S
6HR MIN TEMP:  60; 6HR MAX TEMP:  77; 6HR PCP:  0.05;


$$

LAZ001-002-260700-
NORTHWEST LOUISIANA

CITY           SKY/WX    TMP DP  RH WIND       PRES   REMARKS
SHREVEPORT     FAIR      53  51  93 NW13      30.00F
6HR MIN TEMP:  53; 6HR MAX TEMP:  66; 6HR PCP:  0.04;

BARKSDALE AFB  MOCLDY    53  51  91 NW13      29.99F
6HR MIN TEMP:  53; 6HR MAX TEMP:  65; 6HR PCP:  0.05;

DTN SHREVEPORT FAIR      54  50  86 W9        30.00F
6HR MIN TEMP:  54; 6HR MAX TEMP:  66; 6HR PCP:  0.04;


$$

LAZ014-016-260700-
NORTHEAST LOUISIANA

CITY           SKY/WX    TMP DP  RH WIND       PRES   REMARKS
MONROE         LGT RAIN  58  57  97 NW9       29.94S
6HR MIN TEMP:  58; 6HR MAX TEMP:  74; 6HR PCP:  0.13;

TALLULAH       HVY RAIN  63  63 100 VRB7      29.88S FOG
6HR MIN TEMP:  63; 6HR MAX TEMP:  74; 6HR PCP:  0.29;


$$





USA.gov is the U.S. government's official web portal to all federal, state and local government web resources and services.